LDPE-3A DEB, 55267

Orbit data source: Space-Track

LDPE-3A DEB, 55267 is space debris in GEO originally from a launch on Sun, 15 Jan 2023 UTC launched from the Air Force Eastern Test Range (AFETR). Debris objects in space refer to the collection of defunct objects orbiting the Earth. Examples of debris include non-operational satellites, rocket bodies, and fragments generated from explosions, collisions, or faulty payload assembly.

Not visible in the next 10 days
Identifier
55267, 2023-008E
Orbit
GEO
Country
Flag of USUS
Related business
Manufacturer
SpaceX
Mission
Spacecraft
Bus & Motor
Unknown
Mass
Unknown
Launch date (UTC)
2023-01-15 (3 years ago)
Launch vehicle
Unknown
Launch site
Air Force Eastern Test Range (AFETR)
Object type
Payload
Rocket body
Debris
Shape & HBR
Unknown shape, 1.1 m
Radar Cross Section
RCS unknown

Expand to show TLE details & history
Last TLE update: 1 day ago

TLE from 1 day ago
0 LDPE-3A DEB
1 55267U 23008E   25346.03596593  .00000036  00000-0  00000-0 0  9997
2 55267   2.6846  80.3989 0004541 185.6780 173.9330  1.02216395  5986
Epoch: 2025-12-12T00:51Z
TLE epoch observation values (Epoch: 2025-12-12T00:51:47.456Z)
Latitude
-0°
Longitude
-13.91856°
Altitude
35,268.467 km
Speed
3.093 km/s
True Right ascension
05h 20m 03s
True Declination
0° 00' 00"
Sunlit
Object was in daylight at epoch
Visualization orbit readout
Latitude
Unknown
Longitude
Unknown
Altitude
Unknown
Speed
Unknown
Apparent Right ascension
Unknown
Apparent Declination
Unknown
Sunlit
N/A
Visualization observer readout
Local Sidereal Time
07:33:27
Azimuth
Unknown
Elevation
Unknown
Doppler factor
Unknown
Orbital elements
Apogee altitude
35,270.095 km
Perigee altitude
35,232.287 km
Semi-major axis
41,629.328 km
Eccentricity
0.00045
Inclination
2.6846°
RAAN
80.3989°
Arg. of periapsis
185.678°
True anomaly
173.9385°
Mean anomaly
173.933°
Eccentric anomaly
173.93575°
Mean motion
0.25553 °/min
Orbital period
1,408.83 mins
BSTAR
0
Loading maneuver chart data...
Computing Atmospheric mass density...
Loading historical data...
Loading historical data...
Loading historical data...
Loading historical data...
Loading historical data...
Loading historical data...
Loading historical data...
Other satellites on launch #8 in the year 2023 (2023-01-15 UTC)

Documentation

Showing up to 5 results
|